Nashville, TN

10:19 AM CDT on October 23, 2019 (GMT -0500)
Nashville International

Weather History for KBNA - May, 2019

Change the Weather History Date:

Wednesday, May 15, 2019

  Actual Average Record
Temperature  
Mean Temperature 58 °F 67 °F  
Max Temperature 69 °F 78 °F 93 °F (2018)
Min Temperature 48 °F 57 °F 38 °F (1888)
Degree Days  
Heating Degree Days 6    
Month to date heating degree days 27  
Since 1 July heating degree days 3220  
Cooling Degree Days 0    
Month to date cooling degree days 52  
Year to date cooling degree days 111  
Growing Degree Days 8 (Base 50)    
Moisture  
Dew Point 52 °F    
Average Humidity 76    
Maximum Humidity 93    
Minimum Humidity 63    
Precipitation  
Precipitation 0.14 in 0.20 in 2.69 in (1975)
Month to date precipitation 1.51 2.87  
Year to date precipitation 29.39 18.67  
Sea Level Pressure  
Sea Level Pressure 30.03 in    
Wind  
Wind Speed 4 mph ()    
Max Wind Speed 15 mph    
Max Gust Speed 20 mph    
Visibility 9.5 miles    
Events Rain    
T = Trace of Precipitation, MM = Missing Value Source: Averaged Metar Reports

Daily Weather History Graph

Daily Weather History Graph

Search for Another Location

Airport or City:

Astronomy

May. 15, 2019 Rise Set
Actual Time 5:40 AM CDT 7:45 PM CDT
Civil Twilight 5:12 AM CDT 8:14 PM CDT
Nautical Twilight 4:37 AM CDT 8:49 PM CDT
Astronomical Twilight 3:59 AM CDT 9:27 PM CDT
Moon 4:24 PM CDT (5/15) 3:56 AM CDT (5/15)
Length of Visible Light 15h 02m
Length of Day
14h 04m
Waxing Gibbous, 87% of the Moon is Illuminated
May 15
Waxing Gibbous
May 18
Full
May 26
Last Quarter
Jun 3
New
Jun 10
First Quarter

Hourly Weather History & Observations

Time (CDT) Temp. Dew Point Humidity Pressure Visibility Wind Dir Wind Speed Gust Speed Precip Events Conditions
12:53 AM 53.1 °F 46.9 °F 80% 30.04 in 10.0 mi South 5.8 mph - N/A   Partly Cloudy
1:53 AM 52.0 °F 46.9 °F 83% 30.04 in 10.0 mi Calm Calm - N/A   Partly Cloudy
2:53 AM 52.0 °F 46.9 °F 83% 30.02 in 10.0 mi Calm Calm - N/A   Clear
3:53 AM 51.1 °F 46.9 °F 86% 30.02 in 10.0 mi Calm Calm - N/A   Clear
4:53 AM 48.9 °F 46.0 °F 90% 30.02 in 10.0 mi South 3.5 mph - N/A   Partly Cloudy
5:53 AM 51.1 °F 46.0 °F 83% 30.03 in 10.0 mi ESE 3.5 mph - N/A   Scattered Clouds
6:53 AM 51.1 °F 46.9 °F 86% 30.04 in 10.0 mi South 3.5 mph - N/A   Mostly Cloudy
7:53 AM 55.9 °F 48.0 °F 75% 30.08 in 10.0 mi NE 3.5 mph - N/A   Overcast
8:53 AM 55.0 °F 50.0 °F 83% 30.11 in 5.0 mi Calm Calm - 0.03 in Rain Light Rain
9:53 AM 55.9 °F 51.1 °F 84% 30.07 in 6.0 mi SSE 9.2 mph - 0.08 in Rain Light Rain
10:53 AM 57.9 °F 53.1 °F 84% 30.09 in 6.0 mi South 5.8 mph - 0.01 in Rain Light Rain
11:53 AM 60.1 °F 54.0 °F 80% 30.06 in 10.0 mi South 11.5 mph - 0.02 in   Mostly Cloudy
12:53 PM 64.0 °F 53.1 °F 67% 30.05 in 10.0 mi SSW 11.5 mph - N/A   Mostly Cloudy
1:53 PM 66.0 °F 53.1 °F 63% 30.04 in 10.0 mi SSW 9.2 mph - N/A   Mostly Cloudy
2:53 PM 66.9 °F 55.0 °F 66% 30.01 in 10.0 mi South 4.6 mph - N/A   Mostly Cloudy
3:12 PM 68.0 °F 55.0 °F 63% 30.01 in 10.0 mi South 6.9 mph - N/A   Mostly Cloudy
3:53 PM 68.0 °F 55.9 °F 65% 30.00 in 10.0 mi SSE 6.9 mph - N/A   Mostly Cloudy
4:53 PM 66.9 °F 55.9 °F 68% 30.00 in 10.0 mi South 6.9 mph - N/A   Mostly Cloudy
5:53 PM 66.9 °F 55.9 °F 68% 29.99 in 10.0 mi South 5.8 mph - N/A   Mostly Cloudy
6:53 PM 66.0 °F 55.9 °F 70% 29.99 in 10.0 mi SSE 5.8 mph - N/A   Overcast
7:53 PM 64.9 °F 55.9 °F 73% 30.00 in 10.0 mi South 4.6 mph - N/A   Overcast
8:53 PM 64.0 °F 55.9 °F 75% 30.01 in 10.0 mi South 5.8 mph - N/A   Overcast
9:31 PM 64.0 °F 55.9 °F 75% 30.03 in 10.0 mi South 5.8 mph - N/A   Overcast
9:53 PM 64.0 °F 55.9 °F 75% 30.03 in 10.0 mi South 6.9 mph - N/A   Overcast
10:53 PM 64.0 °F 55.9 °F 75% 30.02 in 10.0 mi Calm Calm - N/A   Overcast
11:53 PM 63.0 °F 55.9 °F 78% 30.01 in 10.0 mi Calm Calm - N/A   Overcast